Current weather by "City, St" or "zip code"  
 
Advertise Here

Current Conditions: Oceanside, Oceanside Municipal Airport, CA

Mostly Cloudy


52.0 F

Last Updated on Nov 23 2020, 7:52 pm PST
Humidity: 97%
Wind Speed: N 0.0 mph
Barometer 29.94 in
Dewpoint: 51.1 F
Visibility: 9.00 mi
Precip: --
Heat Index: NA
Wind Chill: NA
Current conditions at:

Oceanside, Oceanside Municipal Airport, CA (KOKB)

Lat: 33.21806 Lon: 117.35139

Local Radar Image active severe weather and emergency alerts image image weather storm and storm spotter reports image weather observation monitoring service image
Local
Radar
Active
Alerts
Storm Reports Obs
Monitoring

Sign-up For Email & Text Message Weather Alert Notification Services


Advertise Here

Observation History for Oceanside, Oceanside Municipal Airport, CA


Time Wind
(mph)
Vis
(mi)
Weather Precip (in) Temperature (F) Relative
Humidity
Wind
Chill
(F)
Heat
Index
(F)
Pressure
Air Dwpt altimeter
(in)
sea level
(mb)
Rmks
7:52 pm PST N 0.0 9.00 Mostly Cloudy -- 52.0 51.1 97% NA NA 29.94 1013.8
6:52 pm PST N 0.0 10.00 Overcast -- 51.0 50.0 96% NA NA 29.93 1013.4
5:52 pm PST N 0.0 10.00 Fair -- 53.0 50.0 89% NA NA 29.91 1012.8
4:52 pm PST N 0.0 10.00 Fair -- 59.0 53.1 81% NA NA 29.89 1012.0
3:52 pm PST SW 8.1 10.00 A Few Clouds -- 62.0 53.1 73% 61 NA 29.87 1011.5
1:52 pm PST S 9.2 10.00 Overcast -- 64.0 55.0 73% NA NA 29.87 1011.5
11:52 am PST S 5.8 10.00 Overcast -- 64.0 52.0 65% NA NA 29.90 1012.4
10:52 am PST N 0.0 10.00 Overcast -- 63.0 53.1 70% NA NA 29.91 1012.8
9:52 am PST NE 3.5 8.00 Overcast -- 60.0 54.0 80% NA NA 29.93 1013.4
8:52 am PST NE 5.8 8.00 Overcast -- 56.0 53.1 90% 55 NA 29.93 1013.3
7:52 am PST NE 4.6 6.00 Fog/Mist -- 54.0 53.1 97% 53 NA 29.92 1013.2
6:52 am PST NE 3.5 5.00 Fog/Mist -- 52.0 52.0 100% NA NA 29.90 1012.5
5:52 am PST NE 8.1 4.00 Fog/Mist -- 53.0 53.1 100% 50 NA 29.89 1012.1
4:52 am PST NE 3.5 4.00 Fog/Mist -- 53.0 53.1 100% NA NA 29.88 1011.9
3:52 am PST N 0.0 5.00 Fog/Mist -- 52.0 52.0 100% NA NA 29.87 1011.4
2:52 am PST NE 3.5 7.00 Overcast -- 53.0 53.1 100% NA NA 29.87 1011.4
1:52 am PST N 0.0 7.00 Overcast -- 53.0 53.1 100% NA NA 29.88 1011.7
12:52 am PST N 0.0 7.00 Overcast -- 52.0 52.0 100% NA NA 29.89 1012.1
11:52 pm PST NE 4.6 6.00 Fog/Mist -- 52.0 52.0 100% 51 NA 29.90 1012.5
10:52 pm PST N 0.0 8.00 Overcast -- 52.0 52.0 100% NA NA 29.91 1012.6
9:52 pm PST N 0.0 1.75 Fog/Mist -- 50.0 50.0 100% NA NA 29.91 1012.7
8:52 pm PST N 0.0 7.00 Fair -- 52.0 52.0 100% NA NA 29.90 1012.4

Regional Weather Observation


Oceanside, Camp Pendleton, Marine Corps Air Station, CA (KNFG)

Mostly Cloudy
51.0 F

Oceanside, Oceanside Municipal Airport, CA (KOKB)

Mostly Cloudy
52.0 F

Carlsbad, McClellan-Palomar Airport, CA (KCRQ)

Fair
56.0 F

John Wayne-Orange County Airport, CA (KSNA)

Partly Cloudy
57.0 F

Corona Airport, CA (KAJO)

Fair
52.0 F

Riverside / March Air Force Base, CA (KRIV)

Fair
47.0 F